TimeCST,TemperatureF,Dew PointF,Humidity,Sea Level PressureIn,VisibilityMPH,Wind Direction,Wind SpeedMPH,Gust SpeedMPH,PrecipitationIn,Events,Conditions,WindDirDegrees,DateUTC
12:53 AM,21.9,19.9,92,29.88,4.0,South,6.9,-,N/A,,Clear,180,2013-02-24 06:53:00
1:53 AM,21.9,21.0,96,29.89,4.0,South,5.8,-,N/A,,Clear,180,2013-02-24 07:53:00
2:18 AM,19.4,19.4,100,29.83,2.5,South,5.8,-,N/A,,Clear,180,2013-02-24 08:18:00
2:28 AM,19.4,19.4,100,29.83,3.0,South,5.8,-,N/A,,Clear,180,2013-02-24 08:28:00
2:53 AM,19.9,19.0,96,29.90,3.0,SSW,4.6,-,N/A,,Clear,200,2013-02-24 08:53:00
3:26 AM,19.4,19.4,100,29.83,2.5,SSW,3.5,-,N/A,,Clear,200,2013-02-24 09:26:00
3:53 AM,19.0,18.0,96,29.90,2.5,South,4.6,-,N/A,,Clear,180,2013-02-24 09:53:00
4:13 AM,19.4,17.6,93,29.83,1.8,South,4.6,-,N/A,,Clear,180,2013-02-24 10:13:00
4:21 AM,19.4,17.6,93,29.83,2.5,SSW,5.8,-,N/A,,Clear,200,2013-02-24 10:21:00
4:46 AM,17.6,17.6,100,29.83,1.5,South,5.8,-,N/A,,Partly Cloudy,180,2013-02-24 10:46:00
4:53 AM,18.0,17.1,96,29.90,0.8,South,6.9,-,N/A,,Mist,180,2013-02-24 10:53:00
5:14 AM,17.6,15.8,93,29.84,1.8,SSW,3.5,-,N/A,,Mostly Cloudy,210,2013-02-24 11:14:00
5:30 AM,17.6,15.8,93,29.84,1.2,Calm,Calm,-,N/A,,Scattered Clouds,0,2013-02-24 11:30:00
5:50 AM,15.8,15.8,100,29.84,2.0,Calm,Calm,-,N/A,,Partly Cloudy,0,2013-02-24 11:50:00
5:53 AM,16.0,15.1,96,29.92,2.0,Calm,Calm,-,N/A,,Clear,0,2013-02-24 11:53:00
6:01 AM,12.2,10.4,92,29.84,0.8,Calm,Calm,-,N/A,,Clear,0,2013-02-24 12:01:00
6:15 AM,10.4,8.6,92,29.85,0.5,WNW,4.6,-,N/A,Fog,Light Freezing Fog,290,2013-02-24 12:15:00
6:53 AM,10.0,9.0,95,29.96,0.2,WNW,3.5,-,N/A,Fog,Light Freezing Fog,290,2013-02-24 12:53:00
7:14 AM,10.4,10.4,100,29.86,0.2,Calm,Calm,-,N/A,Fog,Light Freezing Fog,0,2013-02-24 13:14:00
7:23 AM,10.4,8.6,92,29.86,0.2,Calm,Calm,-,N/A,Fog,Light Freezing Fog,0,2013-02-24 13:23:00
7:53 AM,10.9,9.0,92,29.96,0.2,Calm,Calm,-,N/A,Fog,Light Freezing Fog,0,2013-02-24 13:53:00
8:27 AM,12.2,12.2,100,29.90,0.2,Calm,Calm,-,N/A,Fog,Light Freezing Fog,0,2013-02-24 14:27:00
8:43 AM,15.8,14.0,93,29.90,1.8,Calm,Calm,-,N/A,,Overcast,0,2013-02-24 14:43:00
8:53 AM,16.0,15.1,96,30.00,1.8,West,3.5,-,N/A,,Overcast,260,2013-02-24 14:53:00
9:01 AM,17.6,17.6,100,29.91,2.5,Calm,Calm,-,N/A,,Overcast,0,2013-02-24 15:01:00
9:08 AM,19.4,17.6,93,29.91,3.0,Calm,Calm,-,N/A,,Mostly Cloudy,0,2013-02-24 15:08:00
9:20 AM,21.2,19.4,93,29.91,3.0,Calm,Calm,-,N/A,,Scattered Clouds,0,2013-02-24 15:20:00
9:53 AM,25.0,23.0,92,30.00,4.0,South,4.6,-,N/A,,Scattered Clouds,170,2013-02-24 15:53:00
10:03 AM,24.8,23.0,93,29.92,4.0,SSE,3.5,-,N/A,,Mostly Cloudy,160,2013-02-24 16:03:00
10:53 AM,27.0,21.9,81,30.00,6.0,Calm,Calm,-,N/A,,Haze,0,2013-02-24 16:53:00
11:05 AM,26.6,21.2,80,29.92,6.0,Calm,Calm,-,N/A,,Haze,0,2013-02-24 17:05:00
11:53 AM,32.0,25.0,75,29.99,5.0,North,6.9,-,0.00,,Haze,350,2013-02-24 17:53:00
12:53 PM,28.9,23.0,78,30.00,5.0,North,6.9,-,N/A,,Haze,10,2013-02-24 18:53:00
1:53 PM,32.0,25.0,75,29.97,5.0,NE,8.1,-,N/A,,Haze,40,2013-02-24 19:53:00
2:53 PM,32.0,26.1,79,29.97,5.0,NE,10.4,-,N/A,,Haze,50,2013-02-24 20:53:00
3:53 PM,30.9,27.0,85,29.98,5.0,NNE,12.7,-,N/A,,Overcast,30,2013-02-24 21:53:00
4:53 PM,30.9,27.0,85,29.97,5.0,NE,11.5,-,N/A,,Overcast,40,2013-02-24 22:53:00
5:24 PM,30.2,26.6,86,29.91,4.0,NNE,13.8,-,N/A,,Overcast,30,2013-02-24 23:24:00
5:36 PM,30.2,26.6,86,29.91,4.0,NNE,13.8,-,N/A,,Overcast,30,2013-02-24 23:36:00
5:53 PM,30.0,27.0,88,30.00,3.0,NNE,12.7,-,N/A,,Overcast,30,2013-02-24 23:53:00
6:21 PM,28.4,26.6,93,29.95,4.0,NNE,9.2,-,N/A,,Overcast,30,2013-02-25 00:21:00
6:37 PM,28.4,26.6,93,29.97,6.0,NNE,10.4,-,N/A,,Overcast,20,2013-02-25 00:37:00
6:53 PM,28.9,26.1,89,30.06,5.0,NNE,11.5,-,N/A,,Overcast,30,2013-02-25 00:53:00
7:46 PM,28.4,26.6,93,30.00,5.0,NE,9.2,-,N/A,,Overcast,40,2013-02-25 01:46:00
7:53 PM,28.9,26.1,89,30.09,5.0,NNE,10.4,-,N/A,,Overcast,30,2013-02-25 01:53:00
8:35 PM,28.4,26.6,93,30.02,4.0,NNE,9.2,-,N/A,,Overcast,20,2013-02-25 02:35:00
8:42 PM,28.4,26.6,93,30.02,3.0,NNE,8.1,-,0.00,Snow,Light Snow,20,2013-02-25 02:42:00
8:53 PM,28.9,26.1,89,30.11,3.0,NNE,6.9,-,0.00,Snow,Light Snow,20,2013-02-25 02:53:00
9:05 PM,28.4,26.6,93,30.03,3.0,NNE,6.9,-,0.00,Snow,Light Snow,20,2013-02-25 03:05:00
9:10 PM,28.4,26.6,93,30.04,2.0,North,6.9,-,0.00,Snow,Light Snow,10,2013-02-25 03:10:00
9:12 PM,28.4,26.6,93,30.04,1.8,NNE,8.1,-,0.00,Snow,Light Snow,20,2013-02-25 03:12:00
9:21 PM,28.4,26.6,93,30.04,1.5,North,8.1,-,0.01,Snow,Light Snow,10,2013-02-25 03:21:00
9:53 PM,28.0,26.1,92,30.11,1.0,North,11.5,-,0.02,Snow,Light Snow,10,2013-02-25 03:53:00
10:53 PM,28.0,26.1,92,30.11,1.5,NNE,10.4,-,0.01,Snow,Light Snow,20,2013-02-25 04:53:00
11:23 PM,28.4,26.6,93,30.04,2.0,NNE,11.5,-,0.00,Snow,Light Snow,20,2013-02-25 05:23:00
11:53 PM,28.0,26.1,92,30.09,1.8,NNE,11.5,-,0.00,Snow,Light Snow,20,2013-02-25 05:53:00